Date String (YYYY-MM-DD hh:mm:ss) UTC,Instrument flags,Ambient pressure (hPa),Sample flow (lpm),Bypass flow (lpm),Sample temperature (°C),Ambient temperature (°C),ASC tube jacket temperature (°C),LED temperature (°C),Box temperature (°C),Sample RH (%),Mass concentration (μg/m³),Mass concentration (μg/m³)
DateTimeUTC,F1_M11,P_M11,Q1_M11,Q2_M11,T1_M11,T2_M11,T3_M11,T4_M11,T5_M11,U1_M11,X0_M11,X2_M11
2021-08-12 18:00:00,FlowAlarm;OPCInstrumentWarning,0833.6,5.01,0.00,29.0,28.0,00.0,38.1,31.1,24.0,0036.19,0028.55
2021-08-12 18:01:00,FlowAlarm;OPCInstrumentWarning,0833.5,5.00,0.00,29.0,28.2,00.0,38.1,31.1,24.2,0037.74,0028.57
2021-08-12 18:02:00,FlowAlarm;OPCInstrumentWarning,0833.5,4.99,0.00,29.1,28.3,00.0,38.1,31.2,24.4,0039.43,0028.55
2021-08-12 18:03:00,FlowAlarm;OPCInstrumentWarning,0833.5,4.99,0.00,29.1,27.2,00.0,38.1,30.9,24.8,0039.98,0028.51
2021-08-12 18:04:00,FlowAlarm;OPCInstrumentWarning,0833.5,5.01,0.00,29.0,25.8,00.0,38.1,30.6,24.7,0040.83,0028.57
2021-08-12 18:05:00,FlowAlarm;OPCInstrumentWarning,0833.6,4.99,0.00,28.9,25.9,00.0,38.1,30.6,24.5,0041.64,0028.62
2021-08-12 18:06:00,FlowAlarm;OPCInstrumentWarning,0833.6,5.01,0.00,28.9,26.3,00.0,38.1,30.7,24.4,0041.88,0028.65
2021-08-12 18:07:00,FlowAlarm;OPCInstrumentWarning,0833.6,4.99,0.00,28.8,26.8,00.0,38.1,30.7,24.4,0042.96,0028.68
2021-08-12 18:08:00,FlowAlarm;OPCInstrumentWarning,0833.6,4.99,0.00,28.9,27.2,00.0,38.0,30.8,24.6,0042.81,0028.65
2021-08-12 18:09:00,FlowAlarm;OPCInstrumentWarning,0833.6,5.01,0.00,28.9,27.6,00.0,38.0,31.0,24.3,0042.32,0028.60
2021-08-12 18:10:00,FlowAlarm;OPCInstrumentWarning,0833.6,4.99,0.00,29.0,27.9,00.0,38.1,31.1,24.2,0042.93,0028.61
2021-08-12 18:11:00,FlowAlarm;OPCInstrumentWarning,0833.6,4.99,0.00,29.0,28.2,00.0,38.1,31.1,23.7,0042.43,0028.60
2021-08-12 18:12:00,FlowAlarm;OPCInstrumentWarning,0833.6,5.00,0.00,29.1,28.4,00.0,38.1,31.2,23.6,0041.36,0028.61
2021-08-12 18:13:00,FlowAlarm;OPCInstrumentWarning,0833.6,5.00,0.00,29.1,27.5,00.0,38.1,31.0,24.3,0039.92,0028.61
2021-08-12 18:14:00,FlowAlarm;OPCInstrumentWarning,0833.6,5.01,0.00,29.0,26.1,00.0,38.1,30.6,24.7,0040.45,0028.59
2021-08-12 18:15:00,FlowAlarm;OPCInstrumentWarning,0833.6,4.99,0.00,28.9,26.0,00.0,38.1,30.5,24.5,0041.11,0028.47
2021-08-12 18:16:00,FlowAlarm;OPCInstrumentWarning,0833.5,5.02,0.00,28.9,26.3,00.0,38.1,30.7,24.4,0040.88,0028.42
2021-08-12 18:17:00,FlowAlarm;OPCInstrumentWarning,0833.5,4.99,0.00,28.8,26.7,00.0,38.1,30.7,25.1,0040.70,0028.35
2021-08-12 18:18:00,FlowAlarm;OPCInstrumentWarning,0833.4,5.01,0.00,28.9,27.1,00.0,38.1,30.8,25.1,0040.17,0028.29
2021-08-12 18:19:00,FlowAlarm;OPCInstrumentWarning,0833.4,4.99,0.00,28.9,27.5,00.0,38.1,30.9,24.5,0039.67,0028.27
2021-08-12 18:20:00,FlowAlarm;OPCInstrumentWarning,0833.4,5.00,0.00,29.0,27.8,00.0,38.1,31.0,24.4,0039.64,0028.28
2021-08-12 18:21:00,FlowAlarm;OPCInstrumentWarning,0833.5,5.00,0.00,29.0,28.1,00.0,38.1,31.1,24.3,0038.98,0028.30
2021-08-12 18:22:00,FlowAlarm;OPCInstrumentWarning,0833.4,5.00,0.00,29.1,28.1,00.0,38.1,31.1,24.1,0038.73,0028.27
2021-08-12 18:23:00,FlowAlarm;OPCInstrumentWarning,0833.4,5.00,0.00,29.0,26.7,00.0,38.1,30.8,24.4,0038.39,0028.17
2021-08-12 18:24:00,FlowAlarm;OPCInstrumentWarning,0833.4,5.00,0.00,28.9,25.7,00.0,38.1,30.5,24.2,0038.01,0028.07
2021-08-12 18:25:00,FlowAlarm;OPCInstrumentWarning,0833.4,5.00,0.00,28.9,26.0,00.0,38.1,30.6,24.8,0037.59,0027.96
2021-08-12 18:26:00,FlowAlarm;OPCInstrumentWarning,0833.4,5.01,0.00,28.8,26.5,00.0,38.0,30.7,24.3,0036.67,0027.89
2021-08-12 18:27:00,FlowAlarm;OPCInstrumentWarning,0833.5,4.99,0.00,28.8,26.9,00.0,38.0,30.7,24.5,0036.83,0027.82
2021-08-12 18:28:00,FlowAlarm;OPCInstrumentWarning,0833.4,5.01,0.00,28.8,27.3,00.0,38.0,30.8,24.4,0038.49,0027.78
2021-08-12 18:29:00,FlowAlarm;OPCInstrumentWarning,0833.4,5.00,0.00,28.9,27.6,00.0,38.0,30.9,23.9,0038.46,0027.73
2021-08-12 18:30:00,FlowAlarm;OPCInstrumentWarning,0833.4,5.00,0.00,29.0,27.9,00.0,38.1,31.0,24.2,0038.35,0027.66
2021-08-12 18:31:00,FlowAlarm;OPCInstrumentWarning,0833.4,5.01,0.00,29.0,28.0,00.0,38.1,31.1,24.4,0038.66,0027.62
2021-08-12 18:32:00,FlowAlarm;OPCInstrumentWarning,0833.4,4.99,0.00,29.0,26.7,00.0,38.1,30.7,24.1,0038.93,0027.51
2021-08-12 18:33:00,FlowAlarm;OPCInstrumentWarning,0833.4,5.01,0.00,28.9,25.7,00.0,38.0,30.4,24.2,0038.85,0027.48
2021-08-12 18:34:00,FlowAlarm;OPCInstrumentWarning,0833.2,4.99,0.00,28.8,25.9,00.0,38.0,30.5,24.2,0039.03,0027.44
2021-08-12 18:35:00,FlowAlarm;OPCInstrumentWarning,0833.2,5.00,0.00,28.7,26.3,00.0,38.0,30.6,24.7,0038.92,0027.41
2021-08-12 18:36:00,FlowAlarm;OPCInstrumentWarning,0833.3,4.99,0.00,28.7,26.8,00.0,38.0,30.7,25.7,0038.52,0027.41
2021-08-12 18:37:00,FlowAlarm;OPCInstrumentWarning,0833.2,5.01,0.00,28.8,27.2,00.0,38.0,30.8,25.0,0038.85,0027.40
2021-08-12 18:38:00,FlowAlarm;OPCInstrumentWarning,0833.3,4.99,0.00,28.8,27.5,00.0,38.0,30.9,24.8,0040.03,0027.34
2021-08-12 18:39:00,FlowAlarm;OPCInstrumentWarning,0833.2,5.01,0.00,28.9,27.8,00.0,38.0,30.9,24.8,0038.62,0027.31
2021-08-12 18:40:00,FlowAlarm;OPCInstrumentWarning,0833.2,4.99,0.00,28.9,28.1,00.0,38.0,31.0,24.6,0039.20,0027.22
2021-08-12 18:41:00,FlowAlarm;OPCInstrumentWarning,0833.2,5.02,0.00,29.0,27.7,00.0,38.1,30.9,24.3,0039.30,0027.16
2021-08-12 18:42:00,FlowAlarm;OPCInstrumentWarning,0833.2,5.00,0.00,28.9,26.1,00.0,38.0,30.6,25.1,0038.92,0027.06
2021-08-12 18:43:00,FlowAlarm;OPCInstrumentWarning,0833.1,5.00,0.00,28.8,25.8,00.0,38.0,30.5,24.7,0039.14,0026.99
2021-08-12 18:44:00,FlowAlarm;OPCInstrumentWarning,0833.2,5.00,0.00,28.8,26.2,00.0,38.0,30.6,24.4,0040.31,0026.93
2021-08-12 18:45:00,FlowAlarm;OPCInstrumentWarning,0833.1,4.98,0.00,28.7,26.6,00.0,38.0,30.6,24.5,0040.62,0026.90
2021-08-12 18:46:00,FlowAlarm;OPCInstrumentWarning,0833.1,5.01,0.00,28.8,27.1,00.0,38.0,30.8,24.9,0040.33,0026.81
2021-08-12 18:47:00,FlowAlarm;OPCInstrumentWarning,0833.1,5.00,0.00,28.8,27.5,00.0,38.0,30.9,24.7,0039.55,0026.72
2021-08-12 18:48:00,FlowAlarm;OPCInstrumentWarning,0833.1,4.99,0.00,28.9,27.8,00.0,38.0,31.0,24.9,0039.70,0026.68
2021-08-12 18:49:00,FlowAlarm;OPCInstrumentWarning,0833.2,5.01,0.00,29.0,28.0,00.0,38.0,31.1,24.5,0037.97,0026.61
2021-08-12 18:50:00,FlowAlarm;OPCInstrumentWarning,0833.2,4.99,0.00,29.0,26.9,00.0,38.0,30.8,24.9,0037.69,0026.56
2021-08-12 18:51:00,FlowAlarm;OPCInstrumentWarning,0833.2,5.01,0.00,28.9,25.8,00.0,38.0,30.5,25.0,0036.94,0026.55
2021-08-12 18:52:00,FlowAlarm;OPCInstrumentWarning,0833.1,4.99,0.00,28.8,26.0,00.0,38.0,30.6,25.3,0037.47,0026.55
2021-08-12 18:53:00,FlowAlarm;OPCInstrumentWarning,0833.1,5.00,0.00,28.8,26.4,00.0,38.0,30.7,26.4,0036.88,0026.01
2021-08-12 18:54:00,,0833.2,4.99,0.00,28.9,26.8,00.0,38.0,30.9,26.5,0035.23,0024.70
2021-08-12 18:55:00,,0833.2,5.00,0.00,29.0,27.4,00.0,38.0,31.0,26.4,0034.11,0023.48
2021-08-12 18:56:00,,0833.2,5.00,0.00,29.0,27.9,00.0,38.0,31.1,26.1,0032.23,0022.28
2021-08-12 18:57:00,,0833.1,5.01,0.00,29.1,28.1,00.0,38.0,31.1,26.0,0031.02,0021.19
2021-08-12 18:58:00,,0833.1,5.00,0.00,29.2,27.9,00.0,38.0,31.0,25.8,0030.04,0020.10
2021-08-12 18:59:00,,0833.1,5.00,0.00,29.1,26.3,00.0,38.0,30.6,24.8,0028.34,0019.00
